Home > Weather > Dawson Creek > Past weeks

Flag for Canada Past Weather in Dawson Creek, British Columbia, Canada — Yesterday and Last 2 Weeks

Now
73 °F

Sunny.


Feels Like: 77 °F
Forecast: 52 / 76 °F
Wind: 7 mph from West

Location: Dawson Creek Airport

Current Time: Jun 26, 2016 at 9:11:03 PM

Latest Report: Jun 26, 2016 at 8:00 PM


Visibility: 9 mi

Pressure: 30.14 "Hg (27.91 "Hg at 668m altitude)

Humidity: 41%

Dew Point: 48 °F

Location of Dawson CreekLocation

Past Weather in Dawson Creek — Graph

°F

Dawson Creek Temperature Yesterday

Maximum temperature yesterday: 73 °F (at 3:00 PM)
Minimum temperature yesterday: 50 °F (at 2:00 AM)
Average temperature yesterday: 63 °F

High & Low Weather Summary for the Past Weeks

 TemperatureHumidityPressure
High79 °F (Jun 20, 4:00 PM)100% (Jun 12, 3:00 AM)30.21 "Hg (Jun 12, 3:00 AM)
Low41 °F (Jun 14, 1:00 AM)30% (Jun 13, 7:00 PM)29.39 "Hg (Jun 15, 11:00 AM)
Average58 °F69%29.87 "Hg
* Reported Jun 11 8:00 PM — Jun 26 8:00 PM, Dawson Creek, Weather by CustomWeather, © 2016

Note: Actual official high and low records may vary slightly from our data, if they occured in-between our weather recording intervals... More about our weather records

Advertising

Dawson Creek Weather History for the Previous 24 Hours

Scroll right to see more
 ConditionsComfort  
Time TempWeatherWind HumidityBarometerVisibility
8:00 PM
Sun, Jun 26
73 °FSunny.7 mph41%30.14 "Hg9 mi
7:00 PM75 °FSunny.12 mph39%30.14 "Hg9 mi
6:00 PM77 °FSunny.10 mph34%30.14 "Hg9 mi
5:00 PM77 °FSunny.13 mph36%30.14 "Hg9 mi
4:00 PM77 °FSunny.10 mph36%30.14 "Hg9 mi
3:00 PM75 °FSunny.13 mph39%30.14 "Hg9 mi
2:00 PM73 °FSunny.10 mph41%30.14 "Hg9 mi
1:00 PM73 °FSunny.13 mph41%30.15 "Hg9 mi
12:00 PM72 °FSunny.10 mph44%30.14 "Hg9 mi
11:00 AM70 °FSunny.10 mph43%30.14 "Hg9 mi
10:00 AM70 °FSunny.15 mph40%30.13 "Hg9 mi
9:00 AM66 °FSunny.10 mph46%30.13 "Hg9 mi
8:00 AM64 °FSunny.7 mph49%30.11 "Hg9 mi
7:00 AM63 °FSunny.7 mph52%30.11 "Hg9 mi
6:00 AM61 °FScattered clouds.6 mph52%30.09 "Hg9 mi
5:00 AM57 °FPassing clouds.8 mph63%30.09 "Hg9 mi
4:00 AM57 °FPassing clouds.2 mph59%30.07 "Hg9 mi
3:00 AM57 °FClear.No wind63%30.07 "Hg9 mi
2:00 AM55 °FClear.5 mph72%30.06 "Hg9 mi
1:00 AM57 °FPassing clouds.5 mph72%30.05 "Hg9 mi
12:00 AM61 °FPassing clouds.2 mph63%30.04 "Hg9 mi
11:00 PM
Sat, Jun 25
61 °FOvercast.3 mph72%30.04 "Hg9 mi
10:00 PM61 °FOvercast.No wind72%30.04 "Hg9 mi
9:00 PM63 °FScattered clouds.No wind73%30.03 "Hg9 mi
Weather by CustomWeather, © 2016

See weather overviewHow to use our weather pages